AGUSAN UAKK-URFF

Flight info

Callsign AGUSAN
Flight time N/A
Altitude FL430
Route SEHAL M166 ARK N996 KODUM L988 OBATA G487 LARIN W54 NINOR W93 XT B820 KND W70 ANAKA B491 PALER
Aircraft C750/M-L/C

Departure

Time 2026-05-04 12:43
Airport Sary-Arka Airport (UAKK)

Arrival

Time N/A
Airport URFF
Time Latitude Longitude Altitude Speed Heading
2026-05-04 12:36 49.67478 73.33227 1784 ft 0 kts 328°
2026-05-04 12:41 49.67482 73.33211 1785 ft 5 kts 221°
2026-05-04 12:41 49.67400 73.33143 1785 ft 22 kts 193°
2026-05-04 12:41 49.67249 73.33111 1785 ft 21 kts 156°
2026-05-04 12:41 49.67231 73.33122 1785 ft 0 kts 158°
2026-05-04 12:42 49.67228 73.33124 1785 ft 3 kts 158°
2026-05-04 12:42 49.67164 73.33173 1785 ft 18 kts 145°
2026-05-04 12:42 49.67103 73.33347 1786 ft 24 kts 59°
2026-05-04 12:42 49.67334 73.33905 1784 ft 108 kts 58°
2026-05-04 12:43 49.67846 73.35252 1810 ft 178 kts 54°
2026-05-04 12:43 49.68766 73.36784 2324 ft 212 kts 34°
2026-05-04 12:43 49.70147 73.37680 3389 ft 228 kts 14°
2026-05-04 12:43 49.71646 73.37969 4903 ft 219 kts
2026-05-04 12:44 49.73088 73.37639 6043 ft 224 kts 332°
2026-05-04 12:44 49.74104 73.35833 6975 ft 239 kts 290°
2026-05-04 12:44 49.74150 73.33265 7873 ft 254 kts 255°
2026-05-04 12:44 49.73575 73.30655 8774 ft 267 kts 252°
2026-05-04 12:45 49.72966 73.27925 9714 ft 277 kts 252°
2026-05-04 12:45 49.72341 73.25133 10703 ft 283 kts 252°
2026-05-04 12:45 49.71688 73.22203 11471 ft 297 kts 253°
2026-05-04 12:45 49.71007 73.19140 12149 ft 312 kts 253°
2026-05-04 12:46 49.70376 73.15909 12879 ft 321 kts 263°
2026-05-04 12:46 49.70535 73.12533 13778 ft 321 kts 282°
2026-05-04 12:46 49.70925 73.09170 14714 ft 322 kts 283°
2026-05-04 12:46 49.71386 73.05813 15608 ft 324 kts 283°
2026-05-04 12:47 49.71849 73.02420 16429 ft 331 kts 283°
2026-05-04 12:47 49.72323 72.98954 17395 ft 331 kts 283°
2026-05-04 12:47 49.72793 72.95509 18257 ft 333 kts 283°
2026-05-04 12:47 49.73266 72.92028 19053 ft 336 kts 283°
2026-05-04 12:48 49.73745 72.88502 19799 ft 340 kts 283°
2026-05-04 12:48 49.74229 72.84932 20522 ft 344 kts 283°
2026-05-04 12:48 49.74718 72.81324 21251 ft 348 kts 283°
2026-05-04 12:48 49.75211 72.77669 21918 ft 353 kts 283°
2026-05-04 12:49 49.75712 72.73952 22637 ft 355 kts 284°
2026-05-04 12:49 49.76214 72.70215 23262 ft 360 kts 284°
2026-05-04 12:49 49.76719 72.66441 23921 ft 363 kts 284°
2026-05-04 12:49 49.77228 72.62634 24566 ft 366 kts 284°
2026-05-04 12:50 49.77737 72.58782 25194 ft 369 kts 284°
2026-05-04 12:50 49.78249 72.54908 25786 ft 372 kts 284°
2026-05-04 12:50 49.78766 72.51002 26383 ft 375 kts 284°
2026-05-04 12:50 49.79289 72.47040 26980 ft 377 kts 284°
2026-05-04 12:51 49.79813 72.43078 27553 ft 379 kts 285°
2026-05-04 12:51 49.80338 72.39087 28075 ft 383 kts 285°
2026-05-04 12:51 49.80865 72.35075 28626 ft 385 kts 285°
2026-05-04 12:51 49.81399 72.30995 29113 ft 388 kts 284°
2026-05-04 12:52 49.81937 72.26884 29638 ft 390 kts 284°
2026-05-04 12:52 49.82473 72.22761 30111 ft 393 kts 284°
2026-05-04 12:52 49.83110 72.18633 30574 ft 393 kts 291°
2026-05-04 12:52 49.83709 72.14492 30966 ft 401 kts 278°
2026-05-04 12:53 49.84014 72.10221 31393 ft 402 kts 282°
2026-05-04 12:53 49.84469 72.05973 31816 ft 404 kts 282°
2026-05-04 12:53 49.84939 72.01709 32235 ft 406 kts 283°
2026-05-04 12:53 49.85422 71.97424 32636 ft 408 kts 283°
2026-05-04 12:54 49.85912 71.93083 33037 ft 410 kts 283°
2026-05-04 12:54 49.86403 71.88752 33417 ft 412 kts 282°
2026-05-04 12:54 49.86892 71.84393 33788 ft 414 kts 282°
2026-05-04 12:54 49.87382 71.80021 34195 ft 415 kts 282°
2026-05-04 12:55 49.87872 71.75628 34570 ft 417 kts 282°
2026-05-04 12:55 49.88364 71.71238 34982 ft 416 kts 282°
2026-05-04 12:55 49.88851 71.66845 35363 ft 416 kts 282°
2026-05-04 12:55 49.89337 71.62463 35822 ft 414 kts 282°
2026-05-04 12:56 49.89820 71.58073 36242 ft 413 kts 282°
2026-05-04 12:56 49.90299 71.53718 36628 ft 412 kts 282°
2026-05-04 12:56 49.90775 71.49370 37107 ft 412 kts 282°
2026-05-04 12:56 49.91248 71.45025 37588 ft 411 kts 282°
2026-05-04 12:57 49.91720 71.40682 38037 ft 411 kts 281°
2026-05-04 12:57 49.92190 71.36354 38527 ft 409 kts 281°
2026-05-04 12:57 49.92654 71.32034 38976 ft 409 kts 280°
2026-05-04 12:57 49.93124 71.27682 39378 ft 409 kts 280°
2026-05-04 12:58 49.93587 71.23360 39757 ft 409 kts 280°
2026-05-04 12:58 49.93941 71.19014 40137 ft 409 kts 274°
2026-05-04 12:58 49.94359 71.14701 40373 ft 407 kts 285°
2026-05-04 12:58 49.95026 71.10466 40584 ft 408 kts 282°
2026-05-04 12:59 49.95554 71.06168 40768 ft 408 kts 281°
2026-05-04 12:59 49.96069 71.01862 40924 ft 409 kts 281°
2026-05-04 12:59 49.96578 70.97506 41097 ft 410 kts 281°
2026-05-04 12:59 49.97081 70.93176 41250 ft 411 kts 281°
2026-05-04 13:00 49.97581 70.88843 41416 ft 411 kts 281°
2026-05-04 13:00 49.98079 70.84502 41549 ft 412 kts 281°
2026-05-04 13:00 49.98578 70.80149 41687 ft 412 kts 281°
2026-05-04 13:00 49.99074 70.75795 41829 ft 412 kts 281°
2026-05-04 13:01 49.99570 70.71431 41958 ft 413 kts 281°
2026-05-04 13:01 50.00068 70.67029 42096 ft 413 kts 281°
2026-05-04 13:01 50.00561 70.62656 42205 ft 414 kts 281°
2026-05-04 13:01 50.01053 70.58274 42343 ft 414 kts 281°
2026-05-04 13:02 50.01544 70.53891 42439 ft 415 kts 281°
2026-05-04 13:02 50.02034 70.49500 42578 ft 415 kts 281°
2026-05-04 13:02 50.02522 70.45108 42673 ft 416 kts 281°
2026-05-04 13:02 50.03009 70.40708 42789 ft 415 kts 281°
2026-05-04 13:03 50.03499 70.36277 42891 ft 416 kts 281°
2026-05-04 13:03 50.04479 70.27467 43079 ft 416 kts 280°
2026-05-04 13:04 50.05287 70.18564 43152 ft 422 kts 278°
2026-05-04 13:04 50.06128 70.09527 43161 ft 428 kts 278°
2026-05-04 13:05 50.06981 70.00309 43156 ft 435 kts 278°
2026-05-04 13:05 50.07838 69.90982 43154 ft 442 kts 278°
2026-05-04 13:06 50.08700 69.81508 43150 ft 448 kts 278°
2026-05-04 13:06 50.09571 69.71860 43147 ft 455 kts 278°
2026-05-04 13:07 50.10442 69.62108 43147 ft 461 kts 278°
2026-05-04 13:07 50.11318 69.52210 43141 ft 466 kts 278°
2026-05-04 13:08 50.12194 69.42205 43129 ft 472 kts 278°
2026-05-04 13:08 50.13060 69.32063 43134 ft 475 kts 277°
2026-05-04 13:09 50.14047 69.21920 43129 ft 478 kts 278°
2026-05-04 13:09 50.15004 69.11716 43123 ft 480 kts 278°
2026-05-04 13:10 50.15959 69.01435 43119 ft 481 kts 278°
2026-05-04 13:10 50.16901 68.91176 43117 ft 481 kts 278°
2026-05-04 13:11 50.17834 68.80911 43114 ft 481 kts 278°
2026-05-04 13:11 50.18759 68.70637 43116 ft 482 kts 278°
2026-05-04 13:12 50.19678 68.60318 43116 ft 482 kts 278°
2026-05-04 13:12 50.20583 68.50038 43115 ft 481 kts 278°
2026-05-04 13:13 50.21481 68.39763 43115 ft 481 kts 278°
2026-05-04 13:13 50.22370 68.29451 43119 ft 481 kts 277°
2026-05-04 13:14 50.23195 68.19159 43120 ft 481 kts 277°
2026-05-04 13:14 50.23999 68.08865 43119 ft 481 kts 277°
2026-05-04 13:15 50.24792 67.98562 43116 ft 481 kts 277°
2026-05-04 13:15 50.25581 67.88219 43116 ft 481 kts 277°
2026-05-04 13:16 50.26359 67.77906 43116 ft 481 kts 277°
2026-05-04 13:16 50.27127 67.67585 43114 ft 481 kts 277°
2026-05-04 13:17 50.27888 67.57231 43110 ft 481 kts 277°
2026-05-04 13:17 50.28638 67.46911 43110 ft 481 kts 277°
2026-05-04 13:18 50.29377 67.36608 43115 ft 480 kts 277°
2026-05-04 13:18 50.30106 67.26296 43122 ft 480 kts 276°
2026-05-04 13:19 50.30831 67.15942 43115 ft 481 kts 276°
2026-05-04 13:19 50.31439 67.05606 43106 ft 480 kts 271°
2026-05-04 13:20 50.30729 66.95307 43104 ft 482 kts 258°
2026-05-04 13:20 50.29014 66.85216 43101 ft 482 kts 257°
2026-05-04 13:21 50.27348 66.75134 43092 ft 482 kts 257°
2026-05-04 13:21 50.25676 66.65050 43099 ft 483 kts 257°
2026-05-04 13:22 50.23996 66.54966 43087 ft 484 kts 257°
2026-05-04 13:22 50.22297 66.44838 43078 ft 484 kts 257°
2026-05-04 13:23 50.20599 66.34758 43063 ft 484 kts 256°
2026-05-04 13:23 50.18888 66.24679 43061 ft 484 kts 256°
2026-05-04 13:24 50.17163 66.14571 43063 ft 484 kts 256°
2026-05-04 13:24 50.15437 66.04506 43051 ft 484 kts 256°
2026-05-04 13:25 50.12636 65.89484 43044 ft 485 kts 255°
2026-05-04 13:25 50.10697 65.79456 43046 ft 485 kts 255°
2026-05-04 13:26 50.08764 65.69469 43046 ft 485 kts 255°
2026-05-04 13:26 50.06822 65.59482 43043 ft 485 kts 255°
2026-05-04 13:27 50.04871 65.49507 43046 ft 485 kts 255°
2026-05-04 13:27 50.02905 65.39500 43042 ft 486 kts 255°
2026-05-04 13:28 50.00931 65.29522 43047 ft 486 kts 254°
2026-05-04 13:28 49.98950 65.19535 43045 ft 487 kts 254°
2026-05-04 13:29 49.96950 65.09517 43043 ft 488 kts 254°
2026-05-04 13:29 49.94944 64.99523 43043 ft 488 kts 254°
2026-05-04 13:30 49.92931 64.89539 43042 ft 488 kts 254°
2026-05-04 13:30 49.90909 64.79570 43036 ft 487 kts 254°
2026-05-04 13:31 49.88874 64.69585 43038 ft 487 kts 254°
2026-05-04 13:31 49.86835 64.59629 43027 ft 487 kts 254°
2026-05-04 13:32 49.84790 64.49693 43021 ft 487 kts 253°
2026-05-04 13:32 49.82728 64.39736 43017 ft 487 kts 253°
2026-05-04 13:33 49.80665 64.29818 43015 ft 488 kts 253°
2026-05-04 13:33 49.78592 64.19889 43013 ft 488 kts 253°
2026-05-04 13:34 49.76508 64.09966 43008 ft 488 kts 253°
2026-05-04 13:34 49.74408 64.00017 43004 ft 488 kts 253°
2026-05-04 13:35 49.71255 63.85175 42996 ft 488 kts 253°
2026-05-04 13:36 49.69144 63.75292 42990 ft 488 kts 253°
2026-05-04 13:36 49.67017 63.65389 42991 ft 487 kts 253°
2026-05-04 13:37 49.64892 63.55536 42990 ft 487 kts 253°
2026-05-04 13:37 49.63058 63.45578 42995 ft 486 kts 261°
2026-05-04 13:38 49.62278 63.35262 42991 ft 486 kts 264°
2026-05-04 13:38 49.61455 63.24989 42995 ft 486 kts 263°